GW2841 Weather Reports


time (UTC)temp
C
wind
direction
speed
KPH
gust
KPH
rain 1hr
cm
rain 24hr
cm
rain mn
cm
humidity
%
barometer
mb
20260506103539 13 0 0.0 0.0 0.00 0.00 0.00 51 1014.0
20260506103044 13 0 0.0 0.0 0.00 0.00 0.00 51 1013.8
20260506102533 13 0 0.0 0.0 0.00 0.00 0.00 51 1013.8
20260506102036 13 0 0.0 0.0 0.00 0.00 0.00 52 1013.9
20260506101542 13 0 0.0 0.0 0.00 0.00 0.00 53 1013.8
20260506101032 13 0 0.0 0.0 0.00 0.00 0.00 53 1013.7
20260506100532 13 0 0.0 0.0 0.00 0.00 0.00 54 1013.8
20260506100039 13 0 0.0 0.0 0.00 0.00 0.00 53 1013.7
20260506095533 13 0 0.0 0.0 0.00 0.00 0.00 51 1013.7
20260506095034 13 0 0.0 0.0 0.00 0.00 0.00 53 1013.6
20260506094539 13 0 0.0 0.0 0.00 0.00 0.00 52 1013.7
20260506094032 13 0 0.0 0.0 0.00 0.00 0.00 51 1013.6
20260506093532 13 0 0.0 0.0 0.00 0.00 0.00 50 1013.6
20260506093039 13 0 0.0 0.0 0.00 0.00 0.00 50 1013.5
20260506092533 13 0 0.0 0.0 0.00 0.00 0.00 50 1013.5
20260506092036 13 0 0.0 0.0 0.00 0.00 0.00 50 1013.5
20260506091546 13 0 0.0 0.0 0.00 0.00 0.00 50 1013.5
20260506091033 14 0 0.0 0.0 0.00 0.00 0.00 50 1013.5
20260506090534 14 0 0.0 0.0 0.00 0.00 0.00 48 1013.5
20260506090058 14 0 0.0 0.0 0.00 0.00 0.00 48 1013.5
20260506085532 14 0 0.0 0.0 0.00 0.41 0.00 49 1013.5
20260506085032 14 0 0.0 0.0 0.00 0.41 0.00 50 1013.5
20260506084546 14 0 0.0 0.0 0.00 0.41 0.00 52 1013.5
20260506084032 14 0 0.0 0.0 0.00 0.41 0.00 55 1013.5
20260506083535 14 0 0.0 0.0 0.00 0.41 0.00 54 1013.5
20260506083042 13 0 0.0 0.0 0.00 0.41 0.00 56 1013.5
20260506082533 14 0 0.0 0.0 0.00 0.41 0.00 55 1013.5
20260506082033 13 0 0.0 0.0 0.00 0.41 0.00 56 1013.4
20260506081544 13 0 0.0 0.0 0.00 0.41 0.00 55 1013.5
20260506081031 14 0 0.0 0.0 0.00 0.41 0.00 55 1013.5
20260506080535 14 0 0.0 0.0 0.00 0.41 0.00 54 1013.5
20260506073047 15 0 0.0 0.0 0.00 0.56 0.00 51 1013.4
20260506072530 15 0 0.0 0.0 0.00 0.56 0.00 51 1013.3
20260506072032 15 0 0.0 0.0 0.00 0.56 0.00 50 1013.3
20260506071542 15 0 0.0 0.0 0.00 0.56 0.00 50 1013.2
20260506071029 15 0 0.0 0.0 0.00 0.56 0.00 48 1013.2
20260506070531 15 0 0.0 0.0 0.00 0.56 0.00 49 1013.1
20260506062030 16 0 0.0 0.0 0.00 0.56 0.56 45 1013.2
20260506061548 16 0 0.0 0.0 0.00 0.56 0.56 45 1013.1
20260506061034 16 0 0.0 0.0 0.00 0.56 0.56 44 1012.9
20260506060533 16 0 0.0 0.0 0.00 0.56 0.56 43 1012.9
20260506051030 18 0 0.0 0.0 0.00 0.56 0.56 34 1013.0
20260506050530 18 0 0.0 0.0 0.00 0.56 0.56 34 1012.9
20260506045034 19 0 0.0 0.0 0.00 0.56 0.56 33 1012.4
20260506044546 19 0 0.0 0.0 0.00 0.56 0.56 32 1012.4
20260506044030 19 0 0.0 0.0 0.00 0.56 0.56 34 1012.4
20260506043530 19 0 0.0 0.0 0.00 0.56 0.56 33 1012.3
20260506043044 19 0 0.0 0.0 0.00 0.56 0.56 32 1012.3
20260506042530 20 0 0.0 0.0 0.00 0.56 0.56 32 1012.4
20260506042030 20 0 0.0 0.0 0.00 0.56 0.56 31 1012.2
20260506041556 20 0 0.0 4.8 0.00 0.56 0.56 31 1012.3
20260506041031 20 0 0.0 4.8 0.00 0.56 0.56 31 1012.1
20260506040531 20 286 1.6 6.4 0.00 0.56 0.56 30 1012.1
20260506040041 20 286 1.6 6.4 0.00 0.56 0.56 30 1012.1
20260506035535 20 286 3.2 6.4 0.00 0.56 0.56 30 1012.0
20260506035032 20 286 3.2 6.4 0.00 0.56 0.56 30 1012.0
20260506034552 20 286 0.0 6.4 0.00 0.56 0.56 30 1011.8
20260506034031 20 286 3.2 6.4 0.00 0.56 0.56 29 1011.8
20260506033534 20 286 1.6 6.4 0.00 0.56 0.56 30 1011.7
20260506033046 20 286 3.2 9.7 0.00 0.56 0.56 29 1011.8
20260506032533 21 286 3.2 9.7 0.00 0.56 0.56 29 1011.7
20260506032030 21 301 3.2 9.7 0.00 0.56 0.56 29 1011.7
20260506031544 21 289 3.2 11.3 0.00 0.56 0.56 28 1011.5
20260506031032 21 289 3.2 11.3 0.00 0.56 0.56 28 1011.3
20260506030531 21 279 4.8 11.3 0.00 0.56 0.56 28 1011.2
20260506030043 21 279 3.2 11.3 0.00 0.56 0.56 28 1011.2
20260506025536 21 287 3.2 8.0 0.00 0.56 0.56 27 1011.1
20260506025032 21 289 3.2 6.4 0.00 0.56 0.56 27 1011.0
20260506024540 21 286 1.6 8.0 0.00 0.56 0.56 27 1011.0
20260506024032 21 289 3.2 9.7 0.00 0.56 0.56 27 1010.9
20260506023533 21 296 1.6 9.7 0.00 0.56 0.56 26 1010.8
20260506023040 21 286 3.2 9.7 0.00 0.56 0.56 27 1010.8
20260506022531 21 286 3.2 8.0 0.00 0.56 0.56 27 1010.7
20260506022032 21 286 1.6 12.9 0.00 0.56 0.56 27 1010.7
20260506021548 22 286 0.0 12.9 0.00 0.56 0.56 27 1010.5
20260506021035 22 287 6.4 12.9 0.00 0.56 0.56 26 1010.5
20260506020533 22 289 4.8 17.7 0.00 0.56 0.56 27 1010.3
20260506020052 22 290 6.4 17.7 0.00 0.56 0.56 26 1010.3
20260506015533 22 287 9.7 17.7 0.00 0.56 0.56 26 1010.2
20260506015030 22 286 6.4 12.9 0.00 0.56 0.56 26 1010.3
20260506014545 22 279 4.8 16.1 0.00 0.56 0.56 26 1010.1
20260506014030 22 276 9.7 16.1 0.00 0.56 0.56 27 1010.2
20260506013530 22 288 4.8 14.5 0.00 0.56 0.56 27 1010.1
20260506013053 22 287 6.4 16.1 0.00 0.56 0.56 26 1010.1
20260506012534 22 313 8.0 16.1 0.00 0.56 0.56 27 1010.0
20260506012032 23 288 8.0 16.1 0.00 0.56 0.56 26 1010.0
20260506011549 23 279 4.8 16.1 0.00 0.56 0.56 26 1010.0
20260506011032 23 275 3.2 16.1 0.00 0.56 0.56 26 1010.0
20260506010532 23 302 4.8 12.9 0.00 0.56 0.56 27 1010.0
20260506010040 23 277 4.8 19.3 0.00 0.56 0.56 27 1010.0
20260506005535 23 287 8.0 19.3 0.00 0.56 0.56 26 1010.0
20260506005034 23 288 8.0 16.1 0.00 0.56 0.56 27 1009.9
20260506004546 23 267 8.0 17.7 0.00 0.56 0.56 27 1009.8
20260506004031 23 281 4.8 17.7 0.00 0.56 0.56 29 1009.7
20260506003531 23 289 4.8 14.5 0.00 0.56 0.56 27 1009.8
20260506003038 23 267 6.4 20.9 0.00 0.56 0.56 26 1009.8
20260506002531 23 267 4.8 20.9 0.00 0.56 0.56 26 1009.6
20260506002034 24 277 8.0 22.5 0.00 0.56 0.56 25 1009.7
20260506001553 23 272 6.4 22.5 0.00 0.56 0.56 25 1009.6
20260506001031 23 236 8.0 16.1 0.00 0.56 0.56 26 1009.7
20260506000529 23 286 6.4 12.9 0.00 0.56 0.56 28 1009.8
20260506000044 23 286 6.4 19.3 0.00 0.56 0.56 27 1009.8
20260505235530 23 285 8.0 19.3 0.00 0.56 0.56 26 1009.8
20260505235032 24 275 4.8 17.7 0.00 0.56 0.56 26 1009.7
20260505234542 24 266 8.0 17.7 0.00 0.56 0.56 26 1009.7
20260505234034 24 276 9.7 16.1 0.00 0.56 0.56 26 1009.7
20260505233536 24 288 4.8 19.3 0.00 0.56 0.56 26 1009.6
20260505233039 24 273 9.7 19.3 0.00 0.56 0.56 27 1009.6
20260505232535 24 311 6.4 22.5 0.00 0.56 0.56 28 1009.6
20260505232032 24 278 6.4 22.5 0.00 0.56 0.56 27 1009.6
20260505231539 24 274 8.0 20.9 0.00 0.56 0.56 28 1009.6
20260505231031 24 236 8.0 20.9 0.00 0.56 0.56 28 1009.6
20260505230533 24 280 9.7 20.9 0.00 0.56 0.56 28 1009.5
20260505230100 24 286 6.4 22.5 0.00 0.56 0.56 31 1009.5
20260505225533 24 276 9.7 22.5 0.00 0.56 0.56 28 1009.7
20260505225034 24 246 4.8 22.5 0.00 0.56 0.56 28 1009.8
20260505224547 24 280 9.7 19.3 0.00 0.56 0.56 28 1009.8
20260505224031 24 0 4.8 22.5 0.00 0.56 0.56 28 1009.8
20260505223534 24 0 4.8 22.5 0.00 0.56 0.56 28 1009.9
20260505223045 24 232 11.3 22.5 0.00 0.56 0.56 27 1010.1
20260505222530 24 270 11.3 22.5 0.00 0.56 0.56 28 1010.0
20260505222035 24 217 1.6 16.1 0.00 0.56 0.56 28 1010.0
20260505221545 24 280 4.8 19.3 0.00 0.56 0.56 30 1010.1
20260505221031 24 287 9.7 19.3 0.00 0.56 0.56 30 1010.1
20260505220529 23 271 9.7 20.9 0.00 0.56 0.56 29 1010.1
20260505220051 23 271 9.7 20.9 0.00 0.56 0.56 29 1010.2
20260505215534 24 273 8.0 16.1 0.00 0.56 0.56 30 1010.2
20260505215030 24 283 9.7 19.3 0.00 0.56 0.56 31 1010.1
20260505214538 23 296 9.7 19.3 0.00 0.56 0.56 32 1010.2
20260505214032 24 300 3.2 17.7 0.00 0.56 0.56 32 1010.3
20260505213530 24 265 8.0 17.7 0.00 0.56 0.56 31 1010.3
20260505213044 24 278 9.7 20.9 0.00 0.56 0.56 30 1010.4
20260505212530 24 280 6.4 20.9 0.00 0.56 0.56 35 1010.3
20260505212033 23 281 8.0 20.9 0.00 0.56 0.56 34 1010.3
20260505211557 23 284 4.8 17.7 0.00 0.56 0.56 36 1010.4
20260505211029 23 283 8.0 17.7 0.00 0.56 0.56 36 1010.6
20260505210529 23 288 6.4 16.1 0.00 0.56 0.56 35 1010.7
20260505210038 23 280 8.0 17.7 0.00 0.56 0.56 35 1010.9
20260505205530 23 275 6.4 17.7 0.00 0.56 0.56 35 1010.9
20260505205031 23 0 0.0 14.5 0.00 0.56 0.56 37 1010.9
20260505204538 23 286 3.2 16.1 0.00 0.56 0.56 36 1011.0
20260505204033 23 271 6.4 16.1 0.00 0.56 0.56 38 1011.0
20260505203531 23 229 4.8 16.1 0.00 0.56 0.56 37 1011.0
20260505203038 22 248 4.8 11.3 0.00 0.56 0.56 39 1011.1
20260505202533 22 263 3.2 16.1 0.00 0.56 0.56 40 1011.1
20260505202031 23 275 8.0 16.1 0.00 0.56 0.56 39 1011.1
20260505201549 23 281 4.8 14.5 0.00 0.56 0.56 39 1011.0
20260505201035 23 270 1.6 16.1 0.00 0.56 0.56 38 1011.1
20260505200530 23 275 8.0 19.3 0.00 0.56 0.56 37 1011.0
20260505200045 23 238 6.4 19.3 0.00 0.56 0.56 40 1011.0
20260505195530 23 251 3.2 16.1 0.00 0.56 0.56 39 1011.1
20260505195035 23 284 6.4 16.1 0.00 0.56 0.56 39 1011.2
20260505194542 23 283 6.4 17.7 0.00 0.56 0.56 40 1011.3
20260505194030 23 265 4.8 17.7 0.00 0.56 0.56 42 1011.2
20260505193530 23 271 6.4 17.7 0.00 0.56 0.56 41 1011.3
20260505193050 23 279 8.0 14.5 0.00 0.56 0.56 44 1011.3
20260505192535 23 269 4.8 14.5 0.00 0.56 0.56 39 1011.4
20260505192032 23 288 3.2 14.5 0.00 0.56 0.56 41 1011.6
20260505191543 23 267 4.8 14.5 0.00 0.56 0.56 39 1011.5
20260505191034 23 281 3.2 14.5 0.00 0.56 0.56 44 1011.7
20260505190533 23 278 4.8 17.7 0.00 0.56 0.56 43 1011.7
20260505190038 22 271 6.4 17.7 0.00 0.56 0.56 44 1011.7
20260505185531 22 286 9.7 17.7 0.00 0.56 0.56 44 1011.8
20260505185032 22 277 1.6 16.1 0.00 0.56 0.56 45 1011.8
20260505184548 22 213 6.4 16.1 0.00 0.56 0.56 45 1012.0
20260505184030 22 284 6.4 14.5 0.00 0.56 0.56 46 1011.9
20260505183535 22 279 4.8 14.5 0.00 0.56 0.56 48 1012.0
20260505183044 21 290 4.8 12.9 0.00 0.56 0.56 46 1012.0
20260505182530 21 268 3.2 14.5 0.00 0.56 0.56 47 1012.2
20260505182034 21 263 4.8 14.5 0.00 0.56 0.56 46 1012.1
20260505181556 21 307 8.0 14.5 0.00 0.56 0.56 46 1012.1
20260505181030 21 285 4.8 12.9 0.00 0.56 0.56 47 1012.1
20260505180530 21 0 4.8 14.5 0.00 0.56 0.56 49 1012.1
20260505180050 21 263 6.4 14.5 0.00 0.56 0.56 47 1012.1
20260505175533 22 284 6.4 12.9 0.00 0.56 0.56 49 1012.1
20260505175033 22 235 1.6 9.7 0.00 0.56 0.56 52 1012.1
20260505174547 22 146 1.6 11.3 0.00 0.56 0.56 51 1012.1
20260505174034 21 0 0.0 14.5 0.00 0.56 0.56 55 1012.1
20260505173533 21 274 3.2 16.1 0.00 0.56 0.56 52 1012.3
20260505173045 21 0 3.2 16.1 0.00 0.56 0.56 55 1012.3
20260505172534 20 266 3.2 11.3 0.00 0.56 0.56 55 1012.2
20260505172030 20 198 4.8 11.3 0.00 0.56 0.56 55 1012.3
20260505171544 20 273 3.2 14.5 0.00 0.56 0.56 55 1012.3
20260505171033 20 0 3.2 14.5 0.00 0.56 0.56 56 1012.1
20260505170529 20 274 4.8 12.9 0.00 0.56 0.56 55 1012.2
20260505170044 21 0 0.0 9.7 0.00 0.56 0.56 55 1012.2
20260505165533 21 0 3.2 11.3 0.00 0.56 0.56 54 1012.1
20260505165032 21 210 3.2 11.3 0.00 0.56 0.56 53 1012.1
20260505164539 20 238 4.8 11.3 0.00 0.56 0.56 56 1012.1
20260505164030 21 0 0.0 9.7 0.00 0.56 0.56 55 1012.1
20260505163529 20 0 0.0 9.7 0.00 0.56 0.56 58 1012.1
20260505163048 20 0 0.0 9.7 0.00 0.56 0.56 59 1012.1
20260505162533 20 0 0.0 9.7 0.00 0.56 0.56 59 1012.1
20260505162033 19 0 0.0 12.9 0.00 0.56 0.56 60 1012.2
20260505161547 20 279 4.8 14.5 0.00 0.56 0.56 59 1012.2
20260505161033 20 279 6.4 14.5 0.00 0.56 0.56 59 1012.1
20260505160533 20 275 4.8 12.9 0.00 0.56 0.56 58 1012.0
20260505153041 21 0 0.0 6.4 0.00 0.56 0.56 58 1011.9
20260505152529 20 198 1.6 6.4 0.00 0.56 0.56 57 1011.8
20260505152030 20 211 0.0 4.8 0.00 0.56 0.56 61 1011.7
20260505151539 20 0 0.0 4.8 0.00 0.56 0.56 62 1011.7
20260505151034 20 0 0.0 8.0 0.00 0.56 0.56 66 1011.8
20260505150535 20 182 3.2 8.0 0.00 0.56 0.56 67 1011.8
20260505140535 17 89 1.6 6.4 0.00 0.56 0.56 81 1011.9
20260505125034 16 0 0.0 4.8 0.00 0.56 0.56 82 1011.2
20260505124550 16 0 0.0 6.4 0.00 0.56 0.56 82 1011.1
20260505124033 16 0 1.6 6.4 0.00 0.56 0.56 82 1011.1
20260505123531 16 128 3.2 12.9 0.00 0.56 0.56 82 1011.0
20260505123054 16 138 1.6 12.9 0.00 0.56 0.56 81 1011.0
20260505122532 16 132 4.8 12.9 0.00 0.56 0.56 81 1010.9
20260505122034 16 140 3.2 8.0 0.00 0.56 0.56 81 1010.9
20260505121551 16 163 1.6 8.0 0.00 0.56 0.56 80 1011.0
20260505121031 16 146 1.6 8.0 0.00 0.56 0.56 80 1010.8
20260505120533 16 126 1.6 8.0 0.00 0.56 0.56 80 1010.9
20260505120038 16 0 0.0 9.7 0.00 0.56 0.56 80 1010.8
20260505115535 16 180 1.6 9.7 0.00 0.56 0.56 80 1010.9
20260505115033 16 190 1.6 12.9 0.00 0.56 0.56 80 1010.8
20260505114544 16 154 3.2 12.9 0.00 0.56 0.56 80 1010.8
20260505114030 16 176 4.8 12.9 0.00 0.56 0.56 80 1010.8
20260505113530 16 126 4.8 12.9 0.00 0.56 0.56 80 1010.7
20260505113043 16 142 6.4 12.9 0.00 0.56 0.56 80 1010.8
20260505112533 16 140 6.4 12.9 0.00 0.56 0.56 79 1010.7
20260505112034 16 114 6.4 12.9 0.00 0.56 0.56 79 1010.9
20260505111540 16 133 6.4 14.5 0.00 0.56 0.56 79 1010.8
20260505111035 16 139 6.4 14.5 0.00 0.56 0.56 79 1010.9
20260505110533 16 95 6.4 14.5 0.00 0.56 0.56 79 1010.8